Stations météo

réclame
Mon MeteoGroup
Spadeadam, Grande-Bretagne (3224): Température de l'air & dewpoint: 22.10.2020 02:00:00 - 28.10.2020 02:00:00 (GMT)Spadeadam, Grande-Bretagne (3224): Température de l'air -20cm: 22.10.2020 02:00:00 - 28.10.2020 02:00:00 (GMT)Spadeadam, Grande-Bretagne (3224): Vitesse du vent & gusts: 22.10.2020 02:00:00 - 28.10.2020 02:00:00 (GMT)Spadeadam, Grande-Bretagne (3224): Direction du vent: 22.10.2020 02:00:00 - 28.10.2020 02:00:00 (GMT)Spadeadam, Grande-Bretagne (3224): reduced air pressure: 22.10.2020 02:00:00 - 28.10.2020 02:00:00 (GMT)Spadeadam, Grande-Bretagne (3224): visibility: 22.10.2020 02:00:00 - 28.10.2020 02:00:00 (GMT)Spadeadam, Grande-Bretagne (3224): Quantités de précipitations: 22.10.2020 02:00:00 - 28.10.2020 02:00:00 (GMT)
Date & Time tt [°C] td [°C] tt -20cm [°C] ff [km/h] ff [knt] fx [km/h] fx [knt] dd ppp [hPa] vv [km] rr [mm]
28.10.2020 02:00:00 6,0 5,0 - 31 17 - - WSW - 10 0,0
28.10.2020 01:00:00 5,8 4,8 - 29 16 - - SW 989,5 16 0,2
28.10.2020 00:00:00 5,5 4,8 - 24 13 - - SW 989,3 17 1,4
27.10.2020 23:00:00 5,6 4,9 - 29 16 - - WSW 989,3 4,9 0,2
27.10.2020 22:00:00 5,3 4,7 - 15 8 - - SW 989,2 11 0,0
27.10.2020 21:00:00 4,8 4,3 - 24 13 - - WSW 988,4 12 0,0
27.10.2020 20:00:00 5,4 5,0 - 34 18 46 25 W 987,9 12 0,0
27.10.2020 19:00:00 5,5 5,2 - 24 13 - - W 987,4 11 0,0
27.10.2020 18:00:00 5,8 5,5 - 28 15 57 31 W 986,6 25 0,2
27.10.2020 17:00:00 6,9 6,8 - 42 23 67 36 WSW 985,5 18 0,2
27.10.2020 16:00:00 7,9 7,7 - 26 14 52 28 SSW 984,6 4,4 1,6
27.10.2020 15:00:00 7,1 7,0 - 15 8 - - ESE 985,1 5 3,8
27.10.2020 14:00:00 7,4 7,2 - 18 10 - - SE 986,2 7 2,2
27.10.2020 13:00:00 7,5 7,2 - 15 8 - - ESE 987,4 10 0,6
27.10.2020 12:00:00 7,3 7,0 - 13 7 - - E 989,0 9 0,4
27.10.2020 11:00:00 7,1 6,5 - 11 6 - - SE 990,4 10 0,2
27.10.2020 10:00:00 6,7 6,0 - 15 8 - - S 991,3 10 0,0
27.10.2020 09:00:00 5,5 5,4 8,0 5 3 - - ESE 991,9 29 0,0
27.10.2020 08:00:00 4,8 4,8 - 8 4 - - S 992,7 10 0,0
27.10.2020 07:00:00 5,4 5,4 - 11 6 - - SW 992,7 9 0,0
27.10.2020 06:00:00 5,7 5,7 - 13 7 - - WSW 993,0 0,3 0,0
27.10.2020 05:00:00 5,8 5,8 - 18 10 - - W 993,4 5 0,0
27.10.2020 04:00:00 5,8 5,8 - 21 11 - - W 993,7 8 0,0
27.10.2020 03:00:00 5,7 5,7 - 21 11 - - W 993,8 6 0,0
27.10.2020 02:00:00 5,9 5,9 - 21 11 - - WSW 994,1 1,1 0,0
27.10.2020 01:00:00 6,3 6,2 - 22 12 - - W 994,1 6 0,0
27.10.2020 00:00:00 6,7 6,4 - 28 15 - - W 994,1 11 0,0
26.10.2020 23:00:00 6,7 6,2 - 24 13 - - WSW 994,0 12 0,0
26.10.2020 22:00:00 6,6 6,3 - 21 11 - - WSW 993,7 10 0,0
26.10.2020 21:00:00 6,9 6,1 - 26 14 - - W 993,0 17 0,0
26.10.2020 20:00:00 7,1 6,3 - 29 16 - - W 992,5 15 0,0
26.10.2020 19:00:00 7,3 6,4 - 34 18 52 28 W 991,9 17 0,2
26.10.2020 18:00:00 7,2 6,6 - 29 16 52 28 W 991,2 13 0,0
26.10.2020 17:00:00 7,3 6,7 - 31 17 61 33 W 990,2 9 0,6
26.10.2020 16:00:00 7,2 6,7 - 37 20 55 30 W 989,7 3,4 0,8
26.10.2020 15:00:00 7,6 6,6 - 28 15 55 30 W 989,1 23 0,2
26.10.2020 14:00:00 7,4 6,5 - 26 14 46 25 WSW 988,8 18 0,0
26.10.2020 13:00:00 8,0 6,3 - 37 20 57 31 W 988,4 10 0,0
26.10.2020 12:00:00 8,2 7,7 - 34 18 48 26 W 987,9 10 0,2
26.10.2020 11:00:00 7,7 7,6 - 26 14 - - W 987,7 4,5 0,0
26.10.2020 10:00:00 7,7 7,7 - 26 14 - - W 987,2 23 0,0
26.10.2020 09:00:00 7,3 7,3 8,0 22 12 - - WSW 986,3 0,4 0,0
26.10.2020 08:00:00 6,6 6,6 - 15 8 - - WSW 986,3 1,9 0,4
26.10.2020 07:00:00 6,4 6,2 - 18 10 - - SSW 985,8 2,3 2,6
26.10.2020 06:00:00 6,4 5,9 - 24 13 - - S 985,4 5 0,6
26.10.2020 05:00:00 6,4 5,8 - 22 12 - - S 985,7 10 0,0
26.10.2020 04:00:00 5,6 5,1 - 18 10 - - SSW 986,1 22 0,2
26.10.2020 03:00:00 5,8 5,3 - 21 11 - - SSW 986,2 18 0,2
26.10.2020 02:00:00 6,1 5,5 - 22 12 - - SSW 986,8 14 0,0
26.10.2020 01:00:00 5,8 5,2 - 26 14 - - S 987,2 35 0,0
26.10.2020 00:00:00 5,9 5,2 - 26 14 - - S 987,6 18 0,4
25.10.2020 23:00:00 6,0 5,7 - 22 12 - - SSW 987,8 8 2,4
25.10.2020 22:00:00 6,4 5,1 - 31 17 48 26 SSW 987,9 21 0,0
25.10.2020 21:00:00 6,1 4,2 - 29 16 - - SSW 987,8 50 0,0
25.10.2020 20:00:00 5,9 4,6 - 26 14 - - S 988,1 30 0,0
25.10.2020 19:00:00 6,2 4,4 - 24 13 - - SSW 988,2 20 0,0
25.10.2020 18:00:00 6,1 4,0 - 21 11 - - SSW 988,7 30 0,0
25.10.2020 17:00:00 6,4 3,7 - 22 12 - - SSW 988,3 30 0,0
25.10.2020 16:00:00 8,2 4,1 - 28 15 46 25 SW 987,7 30 0,0
25.10.2020 15:00:00 8,8 4,9 - 26 14 46 25 SSW 987,4 30 0,0
25.10.2020 14:00:00 9,0 5,6 - 34 18 46 25 SW 987,2 35 0,0
25.10.2020 13:00:00 8,6 6,4 - 29 16 50 27 SW 987,2 10 0,6
25.10.2020 12:00:00 8,2 5,8 - 26 14 - - SW 987,1 40 0,0
25.10.2020 11:00:00 7,7 6,0 - 26 14 - - SSW 987,1 30 0,0
25.10.2020 10:00:00 6,1 5,5 - 24 13 52 28 SSW 987,1 35 0,6
25.10.2020 09:00:00 6,0 5,1 8,2 29 16 55 30 SSW 986,4 40 0,2
25.10.2020 08:00:00 6,4 5,6 - 18 10 - - SSW 986,2 19 0,4
25.10.2020 07:00:00 5,6 4,8 - 22 12 - - S 986,1 25 0,6
25.10.2020 06:00:00 5,8 5,1 - 31 17 48 26 SSW 986,4 6 1,0
25.10.2020 05:00:00 5,9 4,7 - 34 18 - - SSW 986,1 23 0,2
25.10.2020 04:00:00 5,0 3,9 - 28 15 46 25 S 986,1 45 0,0
25.10.2020 03:00:00 4,7 4,1 - 24 13 - - S 986,8 29 0,0
25.10.2020 02:00:00 4,6 4,1 - 24 13 - - S 987,2 35 0,0
25.10.2020 01:00:00 4,2 3,5 - 21 11 - - SSW 987,8 40 0,2
25.10.2020 00:00:00 - - - - - - - - - - -
24.10.2020 23:00:00 5,4 4,5 - 15 8 - - SSW 987,8 40 0,0
24.10.2020 22:00:00 5,4 4,6 - 11 6 - - SW 987,9 30 0,0
24.10.2020 21:00:00 5,2 4,0 - 11 6 - - S 987,5 50 0,0
24.10.2020 20:00:00 4,8 4,3 - 9 5 - - S 988,0 35 0,2
24.10.2020 19:00:00 6,0 5,6 - 15 8 - - SW 988,2 12 1,2
24.10.2020 18:00:00 7,0 6,0 - 18 10 - - SSW 988,2 19 0,0
24.10.2020 17:00:00 7,3 6,5 - 13 7 - - SSW 988,2 20 0,0
24.10.2020 16:00:00 7,5 6,7 - 13 7 - - SW 988,9 19 0,0
24.10.2020 15:00:00 7,8 6,9 - 15 8 - - S 990,1 23 0,0
24.10.2020 14:00:00 7,6 6,7 - 16 9 - - SSW 990,7 35 0,0
24.10.2020 13:00:00 7,8 6,9 - 21 11 - - SW 991,6 35 0,0
24.10.2020 12:00:00 7,4 6,8 - 21 11 - - SW 991,7 11 0,8
24.10.2020 11:00:00 7,0 7,0 - 24 13 - - SW 991,9 10 2,4
24.10.2020 10:00:00 7,2 7,1 - 28 15 80 43 WSW 991,7 5 1,6
24.10.2020 09:00:00 10,0 8,3 8,7 39 21 59 32 SSW 989,7 45 0,0
24.10.2020 08:00:00 9,0 7,5 - 35 19 59 32 S 990,6 50 0,0
24.10.2020 07:00:00 8,3 6,5 - 37 20 54 29 SSW 991,5 50 0,0
24.10.2020 06:00:00 7,4 5,6 - 34 18 48 26 S 992,7 40 0,0
24.10.2020 05:00:00 6,7 5,1 - 31 17 - - S 994,7 25 0,0
24.10.2020 04:00:00 6,4 5,1 - 31 17 55 30 S 996,2 18 0,0
24.10.2020 03:00:00 6,5 5,0 - 35 19 50 27 S 997,7 25 0,0
24.10.2020 02:00:00 5,8 4,8 - 28 15 46 25 S 999,0 17 0,0
24.10.2020 01:00:00 6,2 5,2 - 28 15 - - S 1000,0 21 0,0
24.10.2020 00:00:00 5,5 4,9 - 21 11 - - S 1001,4 21 0,0
23.10.2020 23:00:00 4,3 3,4 - 16 9 - - S 1002,3 30 0,2
23.10.2020 22:00:00 3,1 2,3 - 15 8 - - SSW 1003,2 30 0,0
23.10.2020 21:00:00 3,8 3,0 - 11 6 - - SSW 1003,4 21 0,0
23.10.2020 20:00:00 5,3 4,5 - 15 8 - - SW 1003,7 14 0,0
23.10.2020 19:00:00 5,0 4,5 - 15 8 - - SW 1003,9 18 0,0
23.10.2020 18:00:00 5,4 4,5 - 15 8 - - WSW 1003,3 25 0,0
23.10.2020 17:00:00 6,4 5,2 - 16 9 - - WSW 1002,7 25 0,0
23.10.2020 16:00:00 7,6 5,8 - 22 12 - - WSW 1002,1 30 0,0
23.10.2020 15:00:00 8,9 6,9 - 22 12 - - WSW 1001,7 35 0,0
23.10.2020 14:00:00 8,2 6,9 - 21 11 - - W 1001,2 35 0,0
23.10.2020 13:00:00 7,8 7,7 - 24 13 - - WSW 1000,8 24 0,8
23.10.2020 12:00:00 7,0 6,8 - 31 17 - - SW 1000,8 7 0,8
23.10.2020 11:00:00 7,2 6,5 - 26 14 - - SSW 1000,3 12 0,4
23.10.2020 10:00:00 6,3 5,5 - 24 13 - - SSW 1000,5 21 0,0
23.10.2020 09:00:00 6,3 5,1 9,4 22 12 - - SSW 1001,0 10 0,0
23.10.2020 08:00:00 5,8 4,5 - 21 11 - - S 1001,3 45 0,0
23.10.2020 07:00:00 5,5 4,4 - 18 10 - - SSW 1001,7 30 0,4
23.10.2020 06:00:00 5,5 4,3 - 16 9 - - SSW 1002,2 15 0,0
23.10.2020 05:00:00 5,7 4,6 - 16 9 - - SSW 1002,6 25 0,0
23.10.2020 04:00:00 5,4 4,1 - 13 7 - - S 1003,1 40 0,0
23.10.2020 03:00:00 5,5 4,0 - 15 8 - - SSW 1003,5 40 0,0
23.10.2020 02:00:00 5,2 3,8 - 13 7 - - SW 1004,2 50 0,0
23.10.2020 01:00:00 5,7 4,2 - 13 7 - - SW 1004,8 50 0,0
23.10.2020 00:00:00 5,6 4,6 - 13 7 - - SW 1005,2 45 0,0
22.10.2020 23:00:00 5,8 5,3 - 13 7 - - SW 1005,5 45 0,0
22.10.2020 22:00:00 6,2 6,0 - 11 6 - - WSW 1005,7 17 0,0
22.10.2020 21:00:00 6,5 6,4 - 15 8 - - WSW 1005,9 11 0,0
22.10.2020 20:00:00 6,9 6,9 - 16 9 - - WSW 1005,9 2,6 0,0
22.10.2020 19:00:00 7,2 7,2 - 21 11 - - WSW 1005,6 4,5 0,0
22.10.2020 18:00:00 7,2 7,2 - 22 12 - - W 1005,2 11 1,2
22.10.2020 17:00:00 7,8 7,8 - 29 16 - - WSW 1004,3 3,6 1,0
22.10.2020 16:00:00 8,7 8,6 - 22 12 - - W 1003,4 2,4 0,4
22.10.2020 15:00:00 9,1 8,9 - 21 11 - - W 1002,8 3,9 0,4
22.10.2020 14:00:00 9,2 9,1 - 22 12 - - W 1002,3 2,5 0,4
22.10.2020 13:00:00 9,7 9,4 - 16 9 - - W 1001,7 10 0,0
22.10.2020 12:00:00 9,5 9,1 - 22 12 - - W 1001,3 10 0,0
22.10.2020 11:00:00 9,6 9,4 - 24 13 - - W 1000,7 5 0,0
22.10.2020 10:00:00 9,0 8,8 - 26 14 - - W 1000,1 2,5 0,0
22.10.2020 09:00:00 8,6 8,6 9,7 22 12 - - W 999,6 10 0,0
22.10.2020 08:00:00 8,2 8,2 - 24 13 - - W 998,6 23 0,0
22.10.2020 07:00:00 7,9 7,9 - 24 13 - - W 997,6 14 0,0
22.10.2020 06:00:00 8,4 8,4 - 26 14 - - W 996,5 1,7 0,2
22.10.2020 05:00:00 8,4 8,4 - 22 12 - - WSW 995,8 1,7 0,6
22.10.2020 04:00:00 7,3 7,3 - 26 14 - - SW 995,2 2,4 0,8
22.10.2020 03:00:00 6,9 6,7 - 22 12 - - SW 995,4 2,7 0,4
22.10.2020 02:00:00 7,1 6,8 - 26 14 - - SW 996,0 26 0,6

tt = Température de l'air
td = dewpoint
tt -20cm = Température de l'air -20cm
ff = Vitesse du vent
fx = gusts
dd = Direction du vent
ppp = reduced air pressure
vv = visibility
rr = Quantités de précipitations

stations d'obs. à proximité